Weather History for K06D - March, 2013

Change the Weather History Date:

Friday, March 8, 2013

  Actual Average (KRUG) Record (KRUG)
Temperature  
Mean Temperature 18 °F -  
Max Temperature 23 °F 31 °F 60 °F (1977)
Min Temperature 12 °F 10 °F -16 °F (1984)
Degree Days  
Heating Degree Days 48    
Moisture  
Dew Point 17 °F    
Average Humidity 94    
Maximum Humidity 100    
Minimum Humidity 86    
Precipitation  
Precipitation 0.00 in - - ()
Sea Level Pressure  
Sea Level Pressure 30.10 in    
Wind  
Wind Speed 9 mph (West)    
Max Wind Speed 17 mph    
Max Gust Speed 20 mph    
Visibility 10 miles    
Events Rain    
Averages and records for this station are not official NWS values.
T = Trace of Precipitation, MM = Missing Value Source: NWS Daily Summary

Daily Weather History Graph

Daily Weather History Graph

Search for Another Location

Airport or City:

Trip Planner

Search our weather history database for the weather conditions in past years. The results will help you decide how hot, cold, wet, or windy it might be!

Date:

Astronomy

Mar. 08, 2013 Rise Set
Actual Time 7:05 AM CST 6:33 PM CST
Civil Twilight 6:34 AM CST 7:04 PM CST
Nautical Twilight 5:57 AM CST 7:41 PM CST
Astronomical Twilight 5:20 AM CST 8:18 PM CST
Moon 5:05 AM CST (3/8) 3:18 PM CST (3/8)
Length of Visible Light 12h 30m
Length of Day
11h 27m
Waning Crescent, 11% of the Moon is Illuminated
Mar 8
Waning Crescent
Mar 11
New
Mar 19
First Quarter
Mar 27
Full
Apr 2
Last Quarter

Hourly Weather History & Observations

Time (CST) Temp. Windchill Dew Point Humidity Pressure Visibility Wind Dir Wind Speed Gust Speed Precip Events Conditions
12:15 AM 21.2 °F 11.7 °F 21.2 °F 100% 30.08 in 8.0 mi SW 8.1 mph - N/A Rain Light Freezing Rain
12:35 AM 21.2 °F 11.7 °F 21.2 °F 100% 30.08 in 8.0 mi SSW 8.1 mph - N/A Rain Light Freezing Rain
12:55 AM 21.2 °F 11.7 °F 21.2 °F 100% 30.09 in 7.0 mi SSW 8.1 mph - N/A Rain Light Freezing Rain
1:15 AM 23.0 °F 13.9 °F 23.0 °F 100% 30.09 in 7.0 mi SSW 8.1 mph - N/A Rain Light Freezing Rain
1:35 AM 23.0 °F 13.1 °F 23.0 °F 100% 30.09 in 5.0 mi SSW 9.2 mph - N/A Rain Light Freezing Rain
1:55 AM 23.0 °F 13.9 °F 23.0 °F 100% 30.09 in 5.0 mi SSW 8.1 mph - N/A Rain Light Freezing Rain
2:15 AM 23.0 °F 12.4 °F 23.0 °F 100% 30.10 in 5.0 mi SW 10.4 mph - N/A Rain Light Freezing Rain
2:35 AM 23.0 °F 11.7 °F 23.0 °F 100% 30.10 in 7.0 mi SW 11.5 mph - N/A Rain Light Freezing Rain
2:55 AM 23.0 °F 11.1 °F 23.0 °F 100% 30.10 in 9.0 mi SW 12.7 mph - N/A Rain Light Freezing Rain
3:15 AM 21.2 °F 8.9 °F 21.2 °F 100% 30.10 in 10.0 mi WSW 12.7 mph - N/A Rain Light Freezing Rain
3:35 AM 23.0 °F 13.1 °F 21.2 °F 93% 30.10 in 10.0 mi West 9.2 mph - N/A Rain Light Freezing Rain
3:55 AM 21.2 °F 10.9 °F 21.2 °F 100% 30.10 in 10.0 mi West 9.2 mph - N/A Rain Light Freezing Rain
4:15 AM 23.0 °F 13.1 °F 21.2 °F 93% 30.09 in 10.0 mi West 9.2 mph - N/A Rain Light Freezing Rain
4:35 AM 23.0 °F 12.4 °F 19.4 °F 86% 30.09 in 10.0 mi West 10.4 mph - N/A Rain Light Freezing Rain
4:55 AM 23.0 °F 11.1 °F 21.2 °F 93% 30.09 in 10.0 mi WSW 12.7 mph - N/A Rain Light Freezing Rain
5:15 AM 23.0 °F 10.1 °F 19.4 °F 86% 30.10 in 10.0 mi West 15.0 mph - N/A Rain Light Freezing Rain
5:35 AM 21.2 °F 8.3 °F 19.4 °F 93% 30.10 in 10.0 mi West 13.8 mph 19.6 mph N/A Rain Light Freezing Rain
5:55 AM 21.2 °F 10.1 °F 19.4 °F 93% 30.10 in 10.0 mi West 10.4 mph - N/A Rain Light Freezing Rain
6:15 AM 19.4 °F 8.6 °F 19.4 °F 100% 30.10 in 10.0 mi WNW 9.2 mph - N/A Rain Light Freezing Rain
6:35 AM 19.4 °F 7.9 °F 19.4 °F 100% 30.11 in 10.0 mi West 10.4 mph - N/A Rain Light Freezing Rain
6:55 AM 19.4 °F 8.6 °F 19.4 °F 100% 30.11 in 10.0 mi West 9.2 mph - N/A Rain Light Freezing Rain
7:15 AM 19.4 °F 7.9 °F 17.6 °F 93% 30.11 in 10.0 mi West 10.4 mph - N/A Rain Light Freezing Rain
7:35 AM 17.6 °F 8.2 °F 17.6 °F 100% 30.12 in 10.0 mi West 6.9 mph - N/A Rain Light Freezing Rain
7:55 AM 15.8 °F 2.7 °F 15.8 °F 100% 30.12 in 10.0 mi NW 11.5 mph - N/A Rain Light Freezing Rain
8:15 AM 15.8 °F 5.1 °F 14.0 °F 93% 30.12 in 10.0 mi NW 8.1 mph - N/A Rain Light Freezing Rain
8:35 AM 17.6 °F 7.3 °F 15.8 °F 93% 30.13 in 10.0 mi NW 8.1 mph - N/A Rain Light Freezing Rain
8:55 AM 17.6 °F 7.3 °F 15.8 °F 93% 30.13 in 10.0 mi NW 8.1 mph - N/A Rain Light Freezing Rain
9:15 AM 17.6 °F 7.3 °F 15.8 °F 93% 30.14 in 10.0 mi NW 8.1 mph - N/A Rain Light Freezing Rain
9:35 AM 17.6 °F 6.4 °F 14.0 °F 86% 30.14 in 10.0 mi NW 9.2 mph - N/A Rain Light Freezing Rain
9:55 AM 17.6 °F 8.2 °F 14.0 °F 86% 30.14 in 10.0 mi NW 6.9 mph - N/A Rain Light Freezing Rain
10:15 AM 17.6 °F 6.4 °F 14.0 °F 86% 30.15 in 10.0 mi North 9.2 mph - N/A Rain Light Freezing Rain
10:35 AM 17.6 °F 3.7 °F 15.8 °F 93% 30.14 in 10.0 mi North 13.8 mph - N/A Rain Light Freezing Rain
10:55 AM 15.8 °F -0.2 °F 14.0 °F 93% 30.13 in 10.0 mi North 17.3 mph - N/A Rain Light Freezing Rain
11:15 AM 15.8 °F -0.2 °F 14.0 °F 93% 30.13 in 10.0 mi North 17.3 mph - N/A Rain Light Freezing Rain
11:35 AM 15.8 °F 1.4 °F 14.0 °F 93% 30.13 in 10.0 mi NNW 13.8 mph - N/A Rain Light Freezing Rain
11:55 AM 15.8 °F 1.4 °F 12.2 °F 86% 30.14 in 10.0 mi NNW 13.8 mph - N/A Rain Light Freezing Rain
12:15 PM 15.8 °F 0.9 °F 12.2 °F 86% 30.13 in 10.0 mi NNW 15.0 mph - N/A Rain Light Freezing Rain
12:35 PM 15.8 °F 1.4 °F 14.0 °F 93% 30.13 in 10.0 mi NNW 13.8 mph - N/A Rain Light Freezing Rain
12:55 PM 15.8 °F 2.7 °F 14.0 °F 93% 30.14 in 10.0 mi NNW 11.5 mph - N/A Rain Light Freezing Rain
1:15 PM 17.6 °F 9.3 °F 14.0 °F 86% 30.15 in 10.0 mi NNW 5.8 mph - N/A Rain Light Freezing Rain
1:35 PM 17.6 °F 5.0 °F 15.8 °F 93% 30.14 in 10.0 mi South 11.5 mph - N/A Rain Light Freezing Rain
1:55 PM 17.6 °F 6.4 °F 15.8 °F 93% 30.15 in 10.0 mi South 9.2 mph - N/A Rain Light Freezing Rain
2:15 PM 17.6 °F 4.3 °F 15.8 °F 93% 30.14 in 10.0 mi South 12.7 mph - N/A Rain Light Freezing Rain
2:35 PM 17.6 °F 4.3 °F 15.8 °F 93% 30.14 in 10.0 mi South 12.7 mph - N/A Rain Light Freezing Rain
2:55 PM 17.6 °F 5.0 °F 15.8 °F 93% 30.14 in 10.0 mi South 11.5 mph - N/A Rain Light Freezing Rain
3:15 PM 17.6 °F 5.7 °F 15.8 °F 93% 30.14 in 10.0 mi South 10.4 mph - N/A Rain Light Freezing Rain
3:35 PM 17.6 °F 5.7 °F 15.8 °F 93% 30.14 in 10.0 mi South 10.4 mph - N/A Rain Light Freezing Rain
3:55 PM 17.6 °F 5.0 °F 15.8 °F 93% 30.13 in 10.0 mi SSW 11.5 mph - N/A Rain Light Freezing Rain
4:15 PM 17.6 °F 7.3 °F 15.8 °F 93% 30.12 in 10.0 mi SW 8.1 mph - N/A Rain Light Freezing Rain
4:35 PM 17.6 °F 7.3 °F 15.8 °F 93% 30.11 in 10.0 mi SSW 8.1 mph - N/A Rain Light Freezing Rain
4:55 PM 17.6 °F 7.3 °F 15.8 °F 93% 30.11 in 10.0 mi SSW 8.1 mph - N/A Rain Light Freezing Rain
5:15 PM 17.6 °F 8.2 °F 15.8 °F 93% 30.10 in 10.0 mi SSW 6.9 mph - N/A Rain Light Freezing Rain
5:35 PM 17.6 °F 8.2 °F 15.8 °F 93% 30.10 in 10.0 mi SSW 6.9 mph - N/A Rain Light Freezing Rain
5:55 PM 17.6 °F 8.2 °F 15.8 °F 93% 30.10 in 10.0 mi South 6.9 mph - N/A Rain Light Freezing Rain
6:15 PM 15.8 °F 6.1 °F 15.8 °F 100% 30.10 in 10.0 mi SSW 6.9 mph - N/A Rain Light Freezing Rain
6:35 PM 15.8 °F 7.2 °F 14.0 °F 93% 30.09 in 10.0 mi NNW 5.8 mph - N/A Rain Light Freezing Rain
6:55 PM 15.8 °F - 14.0 °F 93% 30.09 in 10.0 mi Calm Calm - N/A Rain Light Freezing Rain
7:15 PM 14.0 °F - 14.0 °F 100% 30.09 in 10.0 mi Calm Calm - N/A Rain Light Freezing Rain
7:35 PM 12.2 °F - 10.4 °F 92% 30.07 in 10.0 mi Calm Calm - N/A Rain Light Freezing Rain
7:55 PM 14.0 °F 5.1 °F 12.2 °F 93% 30.06 in 10.0 mi NNW 5.8 mph - N/A Rain Light Freezing Rain
8:15 PM 14.0 °F 2.9 °F 14.0 °F 100% 30.05 in 10.0 mi NNW 8.1 mph - N/A Rain Light Freezing Rain
8:35 PM 15.8 °F 3.4 °F 14.0 °F 93% 30.06 in 10.0 mi NNW 10.4 mph - N/A Rain Light Freezing Rain
8:55 PM 15.8 °F 3.4 °F 14.0 °F 93% 30.05 in 10.0 mi North 10.4 mph - N/A Rain Light Freezing Rain
9:15 PM 15.8 °F 7.2 °F 14.0 °F 93% 30.06 in 10.0 mi North 5.8 mph - N/A Rain Light Freezing Rain
9:35 PM 15.8 °F - 14.0 °F 93% 30.07 in 10.0 mi Calm Calm - N/A Rain Light Freezing Rain
9:55 PM 15.8 °F - 14.0 °F 93% 30.08 in 10.0 mi Calm Calm - N/A Rain Light Freezing Rain
10:15 PM 15.8 °F 7.2 °F 14.0 °F 93% 30.08 in 10.0 mi SSW 5.8 mph - N/A Rain Light Freezing Rain
10:35 PM 15.8 °F 8.6 °F 14.0 °F 93% 30.07 in 10.0 mi SSW 4.6 mph - N/A Rain Light Freezing Rain
10:55 PM 15.8 °F 8.6 °F 15.8 °F 100% 30.06 in 10.0 mi SW 4.6 mph - N/A Rain Light Freezing Rain
11:15 PM 17.6 °F 8.2 °F 15.8 °F 93% 30.06 in 10.0 mi SSW 6.9 mph - N/A Rain Light Freezing Rain
11:35 PM 17.6 °F 8.2 °F 15.8 °F 93% 30.05 in 10.0 mi SSW 6.9 mph - N/A Rain Light Freezing Rain
11:55 PM 17.6 °F 9.3 °F 15.8 °F 93% 30.03 in 10.0 mi SSW 5.8 mph - N/A Rain Light Freezing Rain